Regional Weather Roundup
Issued by NWS Newport/Morehead, NC

Current Version | Previous Version | Text Only | Print | Product List | Glossary Off
Versions: 1 2 3 4 5 6 7 8 9 10 11 12 13 14 15 16 17 18 19 20 21 22 23 24 25 26 27 28 29 30 31 32 33 34 35 36 37 38 39 40 41 42 43 44 45 46 47 48 49 50
000 ASUS42 KMHX 282113 RWRMHX WEATHER ROUNDUP FOR EASTERN NORTH CAROLINA NATIONAL WEATHER SERVICE NEWPORT/MOREHEAD CITY NC 500 PM EDT SUN MAY 28 2017 NOTE: "FAIR" INDICATES FEW OR NO CLOUDS BELOW 12,000 FEET WITH NO SIGNIFICANT WEATHER AND/OR OBSTRUCTIONS TO VISIBILITY NCZ015>017-031-032-045>047-102-103-282200- NORTH COAST CITY SKY/WX TMP DP RH WIND PRES REMARKS EDENTON PTSUNNY 85 75 71 CALM 29.76S ELIZABETH CITY CLOUDY 79 74 84 NW7 29.77R KITTY HAWK LGT RAIN 73 68 83 CALM 29.75R VSB 1/2 MANTEO CLOUDY 79 70 72 W7G24 29.77R $$ NCZ045>047-081-094-103-104-282200- CENTRAL COAST CITY SKY/WX TMP DP RH WIND PRES REMARKS FRISCO CLOUDY 80 72 76 SW16G28 29.80F $$ NCZ095-097-098-100-101-282200- SOUTHERN COAST CITY SKY/WX TMP DP RH WIND PRES REMARKS BEAUFORT MOSUNNY 82 74 76 SW20G26 29.81F CEDAR ISLAND NOT AVBL JACKSONVILLE NOT AVBL PINEY ISLAND CLEAR N/A N/A N/A SW23G33 29.79F WILMINGTON SUNNY 87 71 58 S17G23 29.82F $$ NCZ011>013-027>030-043-044-078>080-089-090>093-098-282200- COASTAL PLAIN CITY SKY/WX TMP DP RH WIND PRES REMARKS AHOSKIE NOT AVBL CLINTON SUNNY 91 67 45 W10 29.81S ELIZABETHTOWN SUNNY 91 62 37 W14G21 29.81S GOLDSBORO MOSUNNY 91 63 39 W17G25 29.78F GREENVILLE MOSUNNY 90 63 40 W10G16 29.80S HAVELOCK NOT AVBL KENANSVILLE MOSUNNY 90 66 45 SW10G20 29.80F KINSTON MOSUNNY 90 63 40 SW12 29.79F NEW BERN MOSUNNY 88 73 61 SW10 29.79S RICHLANDS SUNNY 91 67 44 SW12 29.80F ROCKY MOUNT CLOUDY 86 63 45 W14G21 29.79S WASHINGTON SUNNY 89 65 45 W13G20 29.77S WHITEVILLE MOSUNNY 90 65 43 SW6 29.82S $$ AMZ130-135-150-152-154-156-158-170-250-252-270-ANZ085-086-088-633-658-670-282200- MARINE OBSERVATIONS STATION/POSITION TIME TEMP WIND PRES WAVE SWELL AIR SEA DIR/SP/G HT/PER HT/PER (UTC) (F) (DEG/KT/KT) (MB) (FT/S) (FT/S) CHESAPEAKE LIGHT NOT AVBL 64 E VA BEACH 2050 68 67 170/ 10/ 10 1008.8 3/ 6 3/ 6 DUCK 2048 71 68 150/ 6/ 11 1007.7 2 E DUCK 2100 69 N/A 2/ 8 OREGON INLET 2042 77 72 180/ 22/ 25 1007.6 13E OREGON INLT 2048 67 N/A 3/ 7 2/ 7 HATTERAS CG 2048 78 75 210/ 15/ 22 1008.7 DIAMOND BUOY 2050 78 77 210/ 17/ 21 1009.1 4/ 6 2/11 CAPE LOOKOUT 2100 79 220/ 11/ 14 1009.2 BEAUFORT LAB 2048 80 76 230/ 7/ 15 1008.9 30 SE NEW RVR IN 2008 78 76 230/ 17/ 21 1010.4 30 SE NEW RVR IN 2043 76 N/A 4/ 5 27 SE WRIGHTSVLE 2008 77 77 220/ 16/ 23 1009.8 5 SE WRIGHTSVLE 2008 79 76 210/ 12/ 19 1010.8 225 S CAPE HAT 2050 77 77 200/ 14/ 16 1014.5 4/ 5 2/ 8 41 SE CHARLESTON 2050 77 76 220/ 14/ 17 1012.4 3/ 5 2/11 $$

USA.gov is the U.S. government's official web portal to all federal, state and local government web resources and services.